Weather History for Spokane Felts, WA

Change the Weather History Date:

Monday, August 11, 2014

  Actual Average Record
Temperature  
Mean Temperature 78 °F 71 °F  
Max Temperature 100 °F 86 °F 100 °F (2014)
Min Temperature 55 °F 56 °F 48 °F (2007)
Degree Days  
Heating Degree Days 0 0  
Month to date heating degree days 0 0  
Since 1 June heating degree days 83 139  
Since 1 July heating degree days 4 21  
Cooling Degree Days 13 6  
Month to date cooling degree days 133 72  
Year to date cooling degree days 497 290  
Since 1 June cooling degree days 492 283  
Growing Degree Days 27 (Base 50)    
Moisture  
Dew Point 40 °F    
Average Humidity 36    
Maximum Humidity 66    
Minimum Humidity 5    
Precipitation  
Precipitation 0.00 in 0.02 in 0.00 in (2015)
Month to date precipitation 0.00 0.18  
Year to date precipitation 10.64 10.22  
Sea Level Pressure  
Sea Level Pressure 29.96 in    
Wind  
Wind Speed 2 mph (NNE)    
Max Wind Speed 8 mph    
Max Gust Speed 13 mph    
Visibility 9 miles    
Events      
T = Trace of Precipitation, MM = Missing Value Source: NWS Daily Summary

Daily Weather History Graph

Daily Weather History Graph

Search for Another Location

Airport:

Trip Planner

Search our weather history database for the weather conditions in past years. The results will help you decide how hot, cold, wet, or windy it might be!

Date:

Astronomy

Aug. 11, 2014 Rise Set
Actual Time 5:39 AM PDT 8:08 PM PDT
Civil Twilight 5:05 AM PDT 8:42 PM PDT
Nautical Twilight 4:21 AM PDT 9:25 PM PDT
Astronomical Twilight 3:31 AM PDT 10:15 PM PDT
Moon 8:28 PM PDT (8/11) 6:59 AM PDT (8/11)
Length of Visible Light 15h 37m
Length of Day
14h 28m
Full, 98% of the Moon is Illuminated
Aug 11
Full
Aug 17
Last Quarter
Aug 25
New
Sep 2
First Quarter
Sep 8
Full

Hourly Weather History & Observations

Time (PDT) Temp. Dew Point Humidity Pressure Visibility Wind Dir Wind Speed Gust Speed Precip Events Conditions
12:53 AM 64.0 °F 42.1 °F 45% 30.02 in 9.0 mi East 3.5 mph - N/A   Clear
1:53 AM 62.1 °F 44.1 °F 52% 30.02 in 9.0 mi NNE 4.6 mph - N/A   Clear
2:53 AM 62.1 °F 43.0 °F 50% 30.01 in 9.0 mi NNE 4.6 mph - N/A   Clear
3:53 AM 57.9 °F 45.0 °F 62% 30.02 in 9.0 mi Calm Calm - N/A   Clear
4:53 AM 57.9 °F 44.1 °F 60% 30.02 in 9.0 mi North 3.5 mph - N/A   Clear
5:53 AM 55.9 °F 45.0 °F 67% 30.03 in 10.0 mi NNE 3.5 mph - N/A   Clear
6:53 AM 60.1 °F 46.0 °F 60% 30.04 in 10.0 mi Calm Calm - N/A   Clear
7:53 AM 66.9 °F 46.9 °F 49% 30.05 in 8.0 mi Calm Calm - N/A   Clear
8:53 AM 73.9 °F 46.9 °F 38% 30.04 in 8.0 mi Variable 3.5 mph - N/A   Clear
9:53 AM 78.1 °F 46.0 °F 32% 30.03 in 8.0 mi Calm Calm - N/A   Clear
10:53 AM 82.0 °F 46.9 °F 29% 30.02 in 8.0 mi Calm Calm - N/A   Clear
11:53 AM 88.0 °F 46.9 °F 24% 30.00 in 8.0 mi East 4.6 mph - N/A   Clear
12:53 PM 93.9 °F 44.1 °F 18% 29.96 in 10.0 mi East 3.5 mph - N/A   Clear
1:53 PM 96.1 °F 36.0 °F 12% 29.94 in 10.0 mi Calm Calm - N/A   Clear
2:53 PM 98.1 °F 18.0 °F 6% 29.92 in 9.0 mi Variable 3.5 mph - N/A   Clear
3:53 PM 97.0 °F 30.0 °F 9% 29.91 in 10.0 mi NW 4.6 mph - N/A   Clear
4:53 PM 99.0 °F 32.0 °F 10% 29.89 in 10.0 mi Calm Calm - N/A   Clear
5:53 PM 97.0 °F 33.1 °F 11% 29.88 in 10.0 mi West 5.8 mph - N/A   Clear
6:53 PM 91.9 °F 37.0 °F 15% 29.87 in 10.0 mi Calm Calm - N/A   Clear
7:37 PM 86.0 °F 39.0 °F 19% 29.92 in 2.5 mi NNE 3.5 mph - N/A   Haze
7:44 PM 86.0 °F 37.0 °F 18% 29.92 in 9.0 mi NNE 4.6 mph - N/A   Clear
7:53 PM 84.9 °F 35.1 °F 17% 29.87 in 10.0 mi NNE 3.5 mph - N/A   Clear
8:53 PM 78.1 °F 37.0 °F 23% 29.87 in 10.0 mi Calm Calm - N/A   Clear
9:53 PM 75.9 °F 37.9 °F 25% 29.88 in 10.0 mi NNE 4.6 mph - N/A   Clear
10:53 PM 75.0 °F 41.0 °F 29% 29.87 in 10.0 mi NE 3.5 mph - N/A   Clear
11:53 PM 73.9 °F 42.1 °F 32% 29.87 in 10.0 mi NNE 4.6 mph - N/A   Clear